Weather History for KLRJ - January, 2013

Change the Weather History Date:

Thursday, January 3, 2013

  Actual Average Record
Temperature  
Mean Temperature 21 °F -  
Max Temperature 32 °F 24 °F 44 °F (1984)
Min Temperature 10 °F 5 °F -19 °F (1970)
Degree Days  
Heating Degree Days 44    
Moisture  
Dew Point 11 °F    
Average Humidity 76    
Maximum Humidity 86    
Minimum Humidity 68    
Precipitation  
Precipitation 0.00 in - - ()
Sea Level Pressure  
Sea Level Pressure 30.29 in    
Wind  
Wind Speed 9 mph (West)    
Max Wind Speed 20 mph    
Max Gust Speed 26 mph    
Visibility 10 miles    
Events Snow    
Averages and records for this station are not official NWS values.
T = Trace of Precipitation, MM = Missing Value Source: NWS Daily Summary

Daily Weather History Graph

Daily Weather History Graph

Search for Another Location

Airport or City:

Trip Planner

Search our weather history database for the weather conditions in past years. The results will help you decide how hot, cold, wet, or windy it might be!

Date:

Astronomy

Jan. 03, 2013 Rise Set
Actual Time 7:55 AM CST 5:03 PM CST
Civil Twilight 7:23 AM CST 5:35 PM CST
Nautical Twilight 6:48 AM CST 6:11 PM CST
Astronomical Twilight 6:13 AM CST 6:45 PM CST
Moon 11:50 PM CST (1/3) 10:58 AM CST (1/3)
Length of Visible Light 10h 12m
Length of Day
9h 08m
Waning Gibbous, 65% of the Moon is Illuminated
Jan 3
Waning Gibbous
Jan 4
Last Quarter
Jan 11
New
Jan 18
First Quarter
Jan 26
Full

Hourly Weather History & Observations

Time (CST) Temp. Windchill Dew Point Humidity Pressure Visibility Wind Dir Wind Speed Gust Speed Precip Events Conditions
12:15 AM 30.2 °F 23.4 °F 26.6 °F 86% 30.18 in 10.0 mi WNW 6.9 mph - N/A   Overcast
12:35 AM 30.2 °F 22.6 °F 26.6 °F 86% 30.18 in 10.0 mi NW 8.1 mph - N/A   Overcast
1:15 AM 32.0 °F 22.5 °F 24.8 °F 75% 30.19 in 10.0 mi NW 12.7 mph - N/A   Overcast
1:55 AM 30.2 °F 19.3 °F 24.8 °F 80% 30.20 in 10.0 mi NW 15.0 mph 19.6 mph N/A   Overcast
2:15 AM 30.2 °F 19.8 °F 24.8 °F 80% 30.20 in 10.0 mi NW 13.8 mph 19.6 mph N/A   Overcast
2:35 AM 30.2 °F 18.9 °F 24.8 °F 80% 30.21 in 10.0 mi NNW 16.1 mph 24.2 mph N/A   Overcast
2:55 AM 28.4 °F 15.4 °F 21.2 °F 74% 30.23 in 10.0 mi NNW 19.6 mph 25.3 mph N/A   Overcast
3:15 AM 24.8 °F 10.7 °F 17.6 °F 74% 30.25 in 10.0 mi NW 19.6 mph 26.5 mph N/A   Overcast
3:35 AM 19.4 °F 5.0 °F 12.2 °F 74% 30.25 in 10.0 mi NNW 16.1 mph - N/A   Scattered Clouds
3:55 AM 19.4 °F 5.0 °F 12.2 °F 74% 30.26 in 10.0 mi NNW 16.1 mph 20.7 mph N/A   Clear
4:15 AM 17.6 °F 1.7 °F 8.6 °F 68% 30.26 in 10.0 mi NNW 18.4 mph 24.2 mph N/A   Clear
4:35 AM 17.6 °F 3.7 °F 8.6 °F 68% 30.27 in 10.0 mi NNW 13.8 mph 21.9 mph N/A   Clear
4:55 AM 15.8 °F 0.9 °F 8.6 °F 73% 30.27 in 10.0 mi NNW 15.0 mph 23.0 mph N/A   Clear
5:15 AM 15.8 °F -0.2 °F 8.6 °F 73% 30.28 in 10.0 mi NNW 17.3 mph 20.7 mph N/A   Clear
5:35 AM 15.8 °F 2.7 °F 6.8 °F 68% 30.29 in 10.0 mi NNW 11.5 mph 24.2 mph N/A   Clear
5:55 AM 14.0 °F 0.5 °F 6.8 °F 73% 30.30 in 10.0 mi NNW 11.5 mph 19.6 mph N/A   Clear
6:15 AM 12.2 °F 0.7 °F 6.8 °F 79% 30.31 in 10.0 mi NNW 8.1 mph - N/A   Clear
6:35 AM 12.2 °F -1.0 °F 6.8 °F 79% 30.32 in 10.0 mi NW 10.4 mph - N/A   Clear
6:55 AM 12.2 °F -0.2 °F 6.8 °F 79% 30.33 in 10.0 mi NW 9.2 mph - N/A   Clear
7:15 AM 12.2 °F 0.7 °F 6.8 °F 79% 30.33 in 10.0 mi NW 8.1 mph - N/A   Clear
7:35 AM 10.4 °F 0.8 °F 5.0 °F 79% 30.34 in 10.0 mi NW 5.8 mph - N/A   Clear
7:55 AM 10.4 °F 2.2 °F 3.2 °F 73% 30.34 in 10.0 mi WNW 4.6 mph - N/A   Clear
8:15 AM 10.4 °F 4.0 °F 3.2 °F 73% 30.35 in 10.0 mi WNW 3.5 mph - N/A   Clear
8:35 AM 10.4 °F 4.0 °F 5.0 °F 79% 30.35 in 10.0 mi WNW 3.5 mph - N/A   Clear
8:55 AM 12.2 °F 2.9 °F 5.0 °F 73% 30.35 in 10.0 mi NW 5.8 mph - N/A   Clear
9:35 AM 14.0 °F 2.9 °F 6.8 °F 73% 30.36 in 10.0 mi NW 8.1 mph - N/A   Clear
9:55 AM 14.0 °F 1.2 °F 6.8 °F 73% 30.37 in 10.0 mi NNW 10.4 mph - N/A   Clear
10:15 AM 15.8 °F 4.2 °F 6.8 °F 68% 30.38 in 10.0 mi North 9.2 mph - N/A   Clear
10:35 AM 15.8 °F 4.2 °F 8.6 °F 73% 30.38 in 4.0 mi NNW 9.2 mph - N/A Snow Light Snow
10:55 AM 15.8 °F 8.6 °F 8.6 °F 73% 30.38 in 4.0 mi NNW 4.6 mph - N/A Snow Light Snow
11:15 AM 17.6 °F 9.3 °F 10.4 °F 73% 30.37 in 4.0 mi NNW 5.8 mph - N/A Snow Light Snow
11:35 AM 17.6 °F 9.3 °F 10.4 °F 73% 30.37 in 5.0 mi North 5.8 mph - N/A Snow Light Snow
11:55 AM 19.4 °F 11.5 °F 10.4 °F 68% 30.36 in 10.0 mi NNW 5.8 mph - N/A Snow Light Snow
12:15 PM 19.4 °F 9.5 °F 10.4 °F 68% 30.35 in 10.0 mi NNW 8.1 mph - N/A Snow Light Snow
12:35 PM 19.4 °F 10.4 °F 12.2 °F 74% 30.34 in 7.0 mi NW 6.9 mph - N/A Snow Light Snow
12:55 PM 19.4 °F 9.5 °F 12.2 °F 74% 30.33 in 10.0 mi West 8.1 mph - N/A Snow Light Snow
1:15 PM 19.4 °F 9.5 °F 12.2 °F 74% 30.32 in 10.0 mi West 8.1 mph - N/A Snow Light Snow
1:35 PM 21.2 °F 10.9 °F 12.2 °F 68% 30.31 in 10.0 mi West 9.2 mph - N/A Snow Light Snow
1:55 PM 21.2 °F 11.7 °F 12.2 °F 68% 30.31 in 10.0 mi West 8.1 mph - N/A   Overcast
2:15 PM 21.2 °F 11.7 °F 12.2 °F 68% 30.31 in 10.0 mi WSW 8.1 mph - N/A   Overcast
2:35 PM 21.2 °F 14.9 °F 14.0 °F 74% 30.30 in 10.0 mi West 4.6 mph - N/A   Overcast
2:55 PM 23.0 °F 15.8 °F 14.0 °F 68% 30.30 in 10.0 mi West 5.8 mph - N/A   Overcast
3:15 PM 23.0 °F 14.7 °F 14.0 °F 68% 30.30 in 10.0 mi WSW 6.9 mph - N/A   Overcast
3:35 PM 23.0 °F 14.7 °F 15.8 °F 74% 30.30 in 10.0 mi SW 6.9 mph - N/A   Overcast
3:55 PM 23.0 °F 15.8 °F 15.8 °F 74% 30.30 in 10.0 mi SW 5.8 mph - N/A   Overcast
4:15 PM 23.0 °F 13.9 °F 15.8 °F 74% 30.31 in 10.0 mi SW 8.1 mph - N/A   Overcast
4:35 PM 23.0 °F 15.8 °F 15.8 °F 74% 30.31 in 10.0 mi SW 5.8 mph - N/A   Mostly Cloudy
4:55 PM 21.2 °F 14.9 °F 14.0 °F 74% 30.31 in 10.0 mi SW 4.6 mph - N/A   Scattered Clouds
5:15 PM 19.4 °F 14.3 °F 12.2 °F 74% 30.32 in 10.0 mi SSW 3.5 mph - N/A   Clear
5:35 PM 17.6 °F 10.7 °F 12.2 °F 79% 30.31 in 10.0 mi SSW 4.6 mph - N/A   Clear
5:55 PM 17.6 °F 10.7 °F 10.4 °F 73% 30.31 in 10.0 mi SSW 4.6 mph - N/A   Clear
6:15 PM 17.6 °F 10.7 °F 12.2 °F 79% 30.31 in 10.0 mi SSW 4.6 mph - N/A   Clear
6:35 PM 15.8 °F 7.2 °F 10.4 °F 79% 30.30 in 10.0 mi SSW 5.8 mph - N/A   Clear
6:55 PM 15.8 °F 8.6 °F 10.4 °F 79% 30.30 in 10.0 mi SSW 4.6 mph - N/A   Clear
7:15 PM 15.8 °F 6.1 °F 10.4 °F 79% 30.29 in 10.0 mi SSW 6.9 mph - N/A   Clear
7:35 PM 15.8 °F 8.6 °F 10.4 °F 79% 30.29 in 10.0 mi SSW 4.6 mph - N/A   Clear
7:55 PM 14.0 °F 6.5 °F 10.4 °F 86% 30.29 in 10.0 mi SW 4.6 mph - N/A   Clear
8:15 PM 12.2 °F 2.9 °F 8.6 °F 85% 30.28 in 10.0 mi SSW 5.8 mph - N/A   Clear
8:35 PM 12.2 °F 4.3 °F 8.6 °F 85% 30.27 in 10.0 mi SSW 4.6 mph - N/A   Clear
8:55 PM 12.2 °F 2.9 °F 8.6 °F 85% 30.26 in 10.0 mi SSW 5.8 mph - N/A   Clear
9:15 PM 12.2 °F 2.9 °F 8.6 °F 85% 30.26 in 10.0 mi SSW 5.8 mph - N/A   Clear
9:35 PM 12.2 °F 2.9 °F 8.6 °F 85% 30.25 in 10.0 mi SSW 5.8 mph - N/A   Clear
9:55 PM 12.2 °F 1.7 °F 8.6 °F 85% 30.25 in 10.0 mi SSW 6.9 mph - N/A   Clear
10:15 PM 12.2 °F 1.7 °F 8.6 °F 85% 30.24 in 10.0 mi SW 6.9 mph - N/A   Clear
10:35 PM 14.0 °F 3.9 °F 8.6 °F 79% 30.24 in 10.0 mi SSW 6.9 mph - N/A   Clear
10:55 PM 14.0 °F 5.1 °F 10.4 °F 86% 30.24 in 10.0 mi SW 5.8 mph - N/A   Clear
11:15 PM 14.0 °F 3.9 °F 8.6 °F 79% 30.23 in 10.0 mi SW 6.9 mph - N/A   Clear
11:35 PM 12.2 °F 1.7 °F 8.6 °F 85% 30.22 in 10.0 mi SSW 6.9 mph - N/A   Clear
11:55 PM 14.0 °F 5.1 °F 8.6 °F 79% 30.21 in 10.0 mi SSW 5.8 mph - N/A   Clear